Weather History for KMLI - March, 2012

Change the Weather History Date:

Tuesday, March 6, 2012

  Actual Average Record
Temperature  
Mean Temperature 53 °F 35 °F  
Max Temperature 71 °F 44 °F 73 °F (2005)
Min Temperature 34 °F 26 °F -19 °F (1960)
Degree Days  
Heating Degree Days 12 30  
Month to date heating degree days 180 189  
Since 1 July heating degree days 4380 4987  
Cooling Degree Days 0 0  
Month to date cooling degree days 0 0  
Year to date cooling degree days 0 0  
Growing Degree Days 4 (Base 50)    
Moisture  
Dew Point 32 °F    
Average Humidity 51    
Maximum Humidity 75    
Minimum Humidity 26    
Precipitation  
Precipitation 0.00 in 0.08 in 2.07 in (1973)
Month to date precipitation 0.43 0.52  
Year to date precipitation 3.08 3.61  
Snow  
Snow 0.00 in 0.10 in - ()
Month to date snowfall 4.0 1.0  
Since 1 July snowfall 16.9 27.7  
Snow Depth 1.00 in    
Sea Level Pressure  
Sea Level Pressure 29.88 in    
Wind  
Wind Speed 17 mph (South)    
Max Wind Speed 33 mph    
Max Gust Speed 44 mph    
Visibility 10 miles    
Events      
T = Trace of Precipitation, MM = Missing Value Source: NWS Daily Summary

Daily Weather History Graph

Daily Weather History Graph

Search for Another Location

Airport or City:

Trip Planner

Search our weather history database for the weather conditions in past years. The results will help you decide how hot, cold, wet, or windy it might be!

Date:

Astronomy

Mar. 06, 2012 Rise Set
Actual Time 6:27 AM CST 5:59 PM CST
Civil Twilight 6:00 AM CST 6:26 PM CST
Nautical Twilight 5:28 AM CST 6:58 PM CST
Astronomical Twilight 4:56 AM CST 7:31 PM CST
Moon 4:25 PM CST (3/6) 5:04 AM CST (3/6)
Length of Visible Light 12h 26m
Length of Day
11h 31m
Waxing Gibbous, 96% of the Moon is Illuminated
Mar 6
Waxing Gibbous
Mar 8
Full
Mar 14
Last Quarter
Mar 22
New
Mar 30
First Quarter

Hourly Weather History & Observations

Time (CST) Temp. Windchill Dew Point Humidity Pressure Visibility Wind Dir Wind Speed Gust Speed Precip Events Conditions
12:52 AM 36.0 °F 29.6 °F 26.1 °F 67% 30.09 in 10.0 mi SSE 8.1 mph - N/A   Clear
1:52 AM 36.0 °F 30.3 °F 26.1 °F 67% 30.06 in 10.0 mi SE 6.9 mph - N/A   Clear
2:52 AM 37.9 °F 30.9 °F 26.1 °F 62% 30.03 in 10.0 mi South 10.4 mph 17.3 mph N/A   Clear
3:52 AM 37.9 °F 30.5 °F 26.1 °F 62% 30.00 in 10.0 mi South 11.5 mph 20.7 mph N/A   Clear
4:52 AM 37.9 °F 30.9 °F 26.1 °F 62% 29.98 in 10.0 mi South 10.4 mph 18.4 mph N/A   Clear
5:52 AM 39.0 °F 31.0 °F 26.1 °F 60% 29.96 in 10.0 mi South 13.8 mph 20.7 mph N/A   Clear
6:52 AM 39.9 °F 31.8 °F 27.0 °F 60% 29.94 in 10.0 mi South 15.0 mph - N/A   Clear
7:52 AM 44.1 °F 35.9 °F 28.0 °F 53% 29.92 in 10.0 mi South 19.6 mph 27.6 mph N/A   Clear
8:52 AM 48.0 °F - 28.9 °F 48% 29.91 in 10.0 mi SSW 20.7 mph 33.4 mph N/A   Clear
9:52 AM 52.0 °F - 33.1 °F 49% 29.88 in 10.0 mi SSW 17.3 mph 32.2 mph N/A   Clear
10:52 AM 57.9 °F - 37.9 °F 47% 29.88 in 10.0 mi SSW 17.3 mph 27.6 mph N/A   Clear
11:52 AM 64.9 °F - 39.9 °F 40% 29.85 in 10.0 mi SSW 25.3 mph 39.1 mph N/A   Clear
12:52 PM 66.9 °F - 39.0 °F 36% 29.81 in 10.0 mi SSW 27.6 mph 39.1 mph N/A   Clear
1:52 PM 69.1 °F - 37.9 °F 32% 29.79 in 10.0 mi SSW 27.6 mph 42.6 mph N/A   Clear
2:52 PM 71.1 °F - 37.0 °F 29% 29.78 in 10.0 mi SSW 26.5 mph 35.7 mph N/A   Clear
3:52 PM 69.1 °F - 33.1 °F 26% 29.79 in 10.0 mi SSW 15.0 mph 35.7 mph N/A   Clear
4:52 PM 69.8 °F - 33.8 °F 27% 29.77 in 10.0 mi SSW 17.3 mph 25.3 mph N/A   Clear
5:52 PM 66.0 °F - 32.0 °F 28% 29.78 in 10.0 mi SSW 17.3 mph 24.2 mph N/A   Clear
6:52 PM 63.0 °F - 32.0 °F 31% 29.80 in 10.0 mi South 16.1 mph 21.9 mph N/A   Clear
7:52 PM 59.0 °F - 32.0 °F 36% 29.82 in 10.0 mi South 10.4 mph - N/A   Clear
8:52 PM 61.0 °F - 30.9 °F 32% 29.84 in 10.0 mi South 16.1 mph 24.2 mph N/A   Clear
9:52 PM 57.9 °F - 33.1 °F 39% 29.85 in 10.0 mi South 15.0 mph 21.9 mph N/A   Clear
10:52 PM 59.0 °F - 35.1 °F 41% 29.85 in 10.0 mi South 21.9 mph 29.9 mph N/A   Clear
11:52 PM 57.9 °F - 36.0 °F 44% 29.85 in 10.0 mi SSW 12.7 mph - N/A   Clear